Fort Lewis, WA
on Friday, February 15, 2013

Friday
Previous Day Next Day
Daily Summary
 ActualAverage (KOLM)Record (KOLM)
Temperature
Mean Temperature °F / °C 41°F / 5°C  
Max Temperature 53°F / 12°C 49°F / 9°C 62°F / 16°C (1996)
Min Temperature 36°F / 2°C 33°F / 1°C 10°F / -12°C (1956)
Degree Days
Heating Degree Days 20 24  
Month to date heating degree days 361  
Since 1 July heating degree days 3412  
Cooling Degree Days 0 0  
Month to date cooling degree days 0  
Year to date cooling degree days 0  
Moisture
Dew Point 42°F / 6°C   
Average Humidity 92    
Maximum Humidity 100    
Minimum Humidity 65    
Precipitation
Precipitation 0.00 in / 0.00 cm 0.17 in / 4.32 cm 2.18 in / 5.54 cm (1970)
Month to date precipitation 2.96  
Year to date precipitation 10.80  
Wind
Wind Speed 3 mph / 5 km/h   
Max Wind Speed 9 mph / 14 km/h   
Max Gust Speed mph / km/h   
Visibility 10 miles / 15 kilometers   
Events     

Key: T is trace of precipitation, MM is missing value
Source: NWS Daily Summary
Time(PST)TemperatureDew PointHumidity Pressure Visibility Wind DirectionWind SpeedGust SpeedPrecipitationEvents Conditions
12:52 AM 44.6°F / 7.0°C 44.6°F / 7.0°C 100% 30.53 in / 1033.7 hPa 10.0 miles / 16.1 kilometers SE 3.5 mph / 5.6 km/h - N/A   Overcast
12:58 AM 45.5°F / 7.5°C 45.1°F / 7.3°C 99% 30.55 in / 1034.4 hPa 10.0 miles / 16.1 kilometers SE 2.3 mph / 3.7 km/h - N/A   Overcast
1:03 AM 46.4°F / 8.0°C 44.6°F / 7.0°C 93% 30.53 in / 1033.7 hPa 10.0 miles / 16.1 kilometers SE 2.3 mph / 3.7 km/h - N/A   Overcast
1:58 AM 45.5°F / 7.5°C 45.3°F / 7.4°C 99% 30.54 in / 1034.0 hPa 10.0 miles / 16.1 kilometers SE 2.3 mph / 3.7 km/h - N/A   Overcast
2:28 AM 46.4°F / 8.0°C 44.6°F / 7.0°C 93% 30.51 in / 1033.1 hPa 10.0 miles / 16.1 kilometers SE 2.3 mph / 3.7 km/h - N/A   Overcast
2:53 AM 46.4°F / 8.0°C 44.6°F / 7.0°C 93% 30.51 in / 1033.1 hPa 10.0 miles / 16.1 kilometers SE 2.3 mph / 3.7 km/h - N/A   Overcast
2:58 AM 45.5°F / 7.5°C 45.3°F / 7.4°C 99% 30.53 in / 1033.7 hPa 10.0 miles / 16.1 kilometers SE 3.5 mph / 5.6 km/h - N/A   Overcast
3:03 AM 44.6°F / 7.0°C 44.6°F / 7.0°C 100% 30.50 in / 1032.7 hPa 10.0 miles / 16.1 kilometers SE 2.3 mph / 3.7 km/h - N/A   Overcast
3:58 AM 45.3°F / 7.4°C 45.1°F / 7.3°C 99% 30.51 in / 1033.0 hPa 10.0 miles / 16.1 kilometers SE 1.2 mph / 1.9 km/h - N/A   Overcast
4:08 AM 44.6°F / 7.0°C 44.6°F / 7.0°C 100% 30.49 in / 1032.4 hPa 10.0 miles / 16.1 kilometers SE 2.3 mph / 3.7 km/h - N/A   Overcast
4:28 AM 44.6°F / 7.0°C 44.6°F / 7.0°C 100% 30.48 in / 1032.1 hPa 9.0 miles / 14.5 kilometers SE 1.2 mph / 1.9 km/h - N/A   Overcast
4:38 AM 44.6°F / 7.0°C 44.6°F / 7.0°C 100% 30.48 in / 1032.1 hPa 10.0 miles / 16.1 kilometers SE 1.2 mph / 1.9 km/h - N/A   Overcast
4:58 AM 45.3°F / 7.4°C 45.1°F / 7.3°C 99% 30.49 in / 1032.4 hPa 10.0 miles / 16.1 kilometers SE 3.5 mph / 5.6 km/h - N/A   Overcast
5:23 AM 44.6°F / 7.0°C 44.6°F / 7.0°C 100% 30.47 in / 1031.7 hPa 10.0 miles / 16.1 kilometers NNE 4.6 mph / 7.4 km/h - N/A   Overcast
5:28 AM 44.6°F / 7.0°C 44.6°F / 7.0°C 100% 30.47 in / 1031.7 hPa 10.0 miles / 16.1 kilometers NNE 3.5 mph / 5.6 km/h - N/A   Overcast
5:33 AM 44.6°F / 7.0°C 44.6°F / 7.0°C 100% 30.47 in / 1031.7 hPa 10.0 miles / 16.1 kilometers NNE 4.6 mph / 7.4 km/h - N/A   Overcast
5:48 AM 44.6°F / 7.0°C 44.6°F / 7.0°C 100% 30.47 in / 1031.7 hPa 10.0 miles / 16.1 kilometers NNE 4.6 mph / 7.4 km/h - N/A   Overcast
5:53 AM 44.6°F / 7.0°C 44.6°F / 7.0°C 100% 30.47 in / 1031.7 hPa 10.0 miles / 16.1 kilometers NNE 6.9 mph / 11.1 km/h - N/A   Overcast
5:58 AM 45.0°F / 7.2°C 43.9°F / 6.6°C 96% 30.48 in / 1032.0 hPa 10.0 miles / 16.1 kilometers NNE 4.6 mph / 7.4 km/h - N/A   Overcast
6:03 AM 44.6°F / 7.0°C 42.8°F / 6.0°C 93% 30.46 in / 1031.4 hPa 10.0 miles / 16.1 kilometers NNE 3.5 mph / 5.6 km/h - N/A   Overcast
6:18 AM 44.6°F / 7.0°C 42.8°F / 6.0°C 93% 30.46 in / 1031.4 hPa 10.0 miles / 16.1 kilometers NNE 2.3 mph / 3.7 km/h - N/A   Overcast
6:23 AM 44.6°F / 7.0°C 44.6°F / 7.0°C 100% 30.46 in / 1031.4 hPa 10.0 miles / 16.1 kilometers NNE 2.3 mph / 3.7 km/h - N/A   Overcast
6:58 AM 44.6°F / 7.0°C 42.8°F / 6.0°C 93% 30.48 in / 1032.0 hPa 10.0 miles / 16.1 kilometers North 9.2 mph / 14.8 km/h - N/A   Overcast
7:03 AM 44.6°F / 7.0°C 42.8°F / 6.0°C 93% 30.46 in / 1031.4 hPa 10.0 miles / 16.1 kilometers North 8.1 mph / 13.0 km/h - N/A   Overcast
7:18 AM 44.6°F / 7.0°C 42.8°F / 6.0°C 93% 30.46 in / 1031.4 hPa 10.0 miles / 16.1 kilometers North 5.8 mph / 9.3 km/h - N/A   Overcast
7:53 AM 44.6°F / 7.0°C 42.8°F / 6.0°C 93% 30.45 in / 1031.0 hPa 10.0 miles / 16.1 kilometers NNE 4.6 mph / 7.4 km/h - N/A   Overcast
7:56 AM 44.6°F / 7.0°C 42.8°F / 6.0°C 93% 30.45 in / 1031.0 hPa 10.0 miles / 16.1 kilometers NNE 5.8 mph / 9.3 km/h - N/A   Overcast
7:58 AM 43.9°F / 6.6°C 42.8°F / 6.0°C 96% 30.47 in / 1031.7 hPa 10.0 miles / 16.1 kilometers NNE 5.8 mph / 9.3 km/h - N/A   Overcast
8:23 AM 44.6°F / 7.0°C 42.8°F / 6.0°C 93% 30.45 in / 1031.0 hPa 10.0 miles / 16.1 kilometers NNE 5.8 mph / 9.3 km/h - N/A   Overcast
8:24 AM 44.6°F / 7.0°C 42.8°F / 6.0°C 93% 30.45 in / 1031.0 hPa 10.0 miles / 16.1 kilometers NNE 6.9 mph / 11.1 km/h - N/A   Overcast
8:34 AM 44.6°F / 7.0°C 42.8°F / 6.0°C 93% 30.45 in / 1031.0 hPa 10.0 miles / 16.1 kilometers North 4.6 mph / 7.4 km/h - N/A   Overcast
8:39 AM 44.6°F / 7.0°C 42.8°F / 6.0°C 93% 30.45 in / 1031.0 hPa 10.0 miles / 16.1 kilometers North 4.6 mph / 7.4 km/h - N/A   Overcast
8:58 AM 44.2°F / 6.8°C 42.4°F / 5.8°C 93% 30.46 in / 1031.3 hPa 10.0 miles / 16.1 kilometers North 4.6 mph / 7.4 km/h - N/A   Overcast
9:13 AM 44.6°F / 7.0°C 42.8°F / 6.0°C 93% 30.44 in / 1030.7 hPa 10.0 miles / 16.1 kilometers North 5.8 mph / 9.3 km/h - N/A   Overcast
9:58 AM 43.3°F / 6.3°C 41.7°F / 5.4°C 94% 30.45 in / 1031.0 hPa 10.0 miles / 16.1 kilometers North 8.1 mph / 13.0 km/h - N/A   Overcast
10:18 AM 44.6°F / 7.0°C 41.0°F / 5.0°C 87% 30.43 in / 1030.4 hPa 10.0 miles / 16.1 kilometers NNE 4.6 mph / 7.4 km/h - N/A   Overcast
10:58 AM 45.7°F / 7.6°C 41.7°F / 5.4°C 86% 30.44 in / 1030.7 hPa 10.0 miles / 16.1 kilometers NNE 3.5 mph / 5.6 km/h - N/A   Scattered Clouds
11:28 AM 48.2°F / 9.0°C 42.8°F / 6.0°C 82% 30.41 in / 1029.7 hPa 10.0 miles / 16.1 kilometers North 4.6 mph / 7.4 km/h - N/A   Mostly Cloudy
11:58 AM 49.1°F / 9.5°C 42.1°F / 5.6°C 77% 30.41 in / 1029.6 hPa 10.0 miles / 16.1 kilometers NE 2.3 mph / 3.7 km/h - N/A   Mostly Cloudy
12:08 PM 50.0°F / 10.0°C 42.8°F / 6.0°C 76% 30.39 in / 1029.0 hPa 10.0 miles / 16.1 kilometers NE 1.2 mph / 1.9 km/h - N/A   Scattered Clouds
12:58 PM 50.5°F / 10.3°C 41.4°F / 5.2°C 71% 30.38 in / 1028.6 hPa 10.0 miles / 16.1 kilometers North 3.5 mph / 5.6 km/h - N/A   Clear
1:58 PM 52.3°F / 11.3°C 41.9°F / 5.5°C 68% 30.34 in / 1027.2 hPa 10.0 miles / 16.1 kilometers NNE 1.2 mph / 1.9 km/h - N/A   Clear
2:58 PM 53.2°F / 11.8°C 41.7°F / 5.4°C 65% 30.31 in / 1026.2 hPa 10.0 miles / 16.1 kilometers NE 3.5 mph / 5.6 km/h - N/A   Clear
3:58 PM 53.4°F / 11.9°C 42.1°F / 5.6°C 65% 30.29 in / 1025.5 hPa 10.0 miles / 16.1 kilometers North 5.8 mph / 9.3 km/h - N/A   Clear
4:58 PM 52.3°F / 11.3°C 42.1°F / 5.6°C 68% 30.26 in / 1024.5 hPa 10.0 miles / 16.1 kilometers North 3.5 mph / 5.6 km/h - N/A   Clear
5:58 PM 49.1°F / 9.5°C 42.3°F / 5.7°C 77% 30.24 in / 1023.8 hPa 10.0 miles / 16.1 kilometers North 2.3 mph / 3.7 km/h - N/A   Clear
6:58 PM 45.1°F / 7.3°C 41.9°F / 5.5°C 88% 30.24 in / 1023.9 hPa 10.0 miles / 16.1 kilometers North 1.2 mph / 1.9 km/h - N/A   Clear
7:58 PM 42.4°F / 5.8°C 40.1°F / 4.5°C 91% 30.24 in / 1023.9 hPa 10.0 miles / 16.1 kilometers North 2.3 mph / 3.7 km/h - N/A   Clear
8:58 PM 39.2°F / 4.0°C 38.3°F / 3.5°C 97% 30.24 in / 1023.9 hPa 10.0 miles / 16.1 kilometers Calm Calm - N/A   Clear
9:58 PM 39.6°F / 4.2°C 39.2°F / 4.0°C 99% 30.23 in / 1023.6 hPa 10.0 miles / 16.1 kilometers Calm Calm - N/A   Clear
10:13 PM 37.4°F / 3.0°C 37.4°F / 3.0°C 100% 30.20 in / 1022.6 hPa 5.0 miles / 8.0 kilometers North 2.3 mph / 3.7 km/h - N/A   Clear
10:18 PM 37.4°F / 3.0°C 35.6°F / 2.0°C 93% 30.20 in / 1022.6 hPa 3.0 miles / 4.8 kilometers North 2.3 mph / 3.7 km/h - N/A   Clear
10:23 PM 37.4°F / 3.0°C 37.4°F / 3.0°C 100% 30.20 in / 1022.6 hPa 4.0 miles / 6.4 kilometers North 2.3 mph / 3.7 km/h - N/A   Clear
10:28 PM 37.4°F / 3.0°C 37.4°F / 3.0°C 100% 30.20 in / 1022.6 hPa 10.0 miles / 16.1 kilometers North 2.3 mph / 3.7 km/h - N/A   Clear
10:38 PM 37.4°F / 3.0°C 37.4°F / 3.0°C 100% 30.20 in / 1022.6 hPa 7.0 miles / 11.3 kilometers North 2.3 mph / 3.7 km/h - N/A   Clear
10:58 PM 37.6°F / 3.1°C 37.4°F / 3.0°C 99% 30.22 in / 1023.2 hPa 10.0 miles / 16.1 kilometers Calm Calm - N/A   Clear
11:58 PM 36.5°F / 2.5°C 36.3°F / 2.4°C 99% 30.19 in / 1022.2 hPa 10.0 miles / 16.1 kilometers Calm Calm - N/A   Clear
Moon Phase
Feb. 15 Feb. 17 Feb. 25 Mar. 04 Mar. 11
Sunrise:07:14 AM (PST) Moon Rise:09:27 AM (PST)2/15
Sunset:05:35 PM (PST) Moon Set:No Moon Set/

Copyright © 2014 The Weather Underground, Inc.